| time (UTC) | temp F | wind direction | speed MPH | gust MPH | rain 1hr in | rain 24hr in | rain mn in | humidity % | barometer mb |
| 20260507123203 | 43 | 7 | 0.0 | 0.0 | 0.00 | 0.00 | 0.00 | 86 | 1021.7 |
| 20260507120703 | 42 | 1 | 0.0 | 0.0 | 0.00 | 0.00 | 0.00 | 85 | 1021.6 |
| 20260507120203 | 42 | 1 | 0.0 | 0.0 | 0.00 | 0.00 | 0.00 | 85 | 1021.5 |
| 20260507113203 | 42 | 3 | 0.0 | 0.0 | 0.00 | 0.00 | 0.00 | 84 | 1021.3 |
| 20260507110703 | 42 | 2 | 0.0 | 0.0 | 0.00 | 0.00 | 0.00 | 83 | 1021.1 |
| 20260507110203 | 42 | 1 | 0.0 | 0.0 | 0.00 | 0.00 | 0.00 | 83 | 1021.1 |
| 20260507103703 | 43 | 1 | 0.0 | 0.0 | 0.00 | 0.00 | 0.00 | 82 | 1021.4 |
| 20260507103203 | 43 | 1 | 0.0 | 0.0 | 0.00 | 0.00 | 0.00 | 82 | 1021.3 |
| 20260507100703 | 44 | 1 | 0.0 | 0.0 | 0.00 | 0.00 | 0.00 | 82 | 1021.3 |
| 20260507100203 | 44 | 1 | 0.0 | 0.0 | 0.00 | 0.00 | 0.00 | 81 | 1021.4 |
| 20260507093703 | 45 | 1 | 0.0 | 1.0 | 0.00 | 0.00 | 0.00 | 82 | 1021.4 |
| 20260507093202 | 45 | 1 | 0.0 | 1.0 | 0.00 | 0.00 | 0.00 | 82 | 1021.4 |
| 20260507090702 | 44 | 1 | 0.0 | 0.0 | 0.00 | 0.00 | 0.00 | 81 | 1021.2 |
| 20260507090204 | 44 | 1 | 0.0 | 0.0 | 0.00 | 0.00 | 0.00 | 80 | 1021.1 |
| 20260507083703 | 45 | 2 | 0.0 | 0.0 | 0.00 | 0.00 | 0.00 | 79 | 1021.0 |
| 20260507083202 | 46 | 2 | 0.0 | 0.0 | 0.00 | 0.00 | 0.00 | 78 | 1021.0 |
| 20260507080703 | 47 | 7 | 0.0 | 0.0 | 0.00 | 0.00 | 0.00 | 77 | 1021.2 |
| 20260507080204 | 47 | 7 | 0.0 | 1.0 | 0.00 | 0.00 | 0.00 | 77 | 1021.4 |
| 20260507073703 | 48 | 17 | 1.0 | 2.0 | 0.00 | 0.00 | 0.00 | 76 | 1021.8 |
| 20260507073203 | 48 | 17 | 1.0 | 3.0 | 0.00 | 0.00 | 0.00 | 76 | 1021.8 |
| 20260507070703 | 47 | 23 | 0.0 | 0.0 | 0.00 | 0.00 | 0.00 | 75 | 1021.0 |
| 20260507070203 | 47 | 22 | 0.0 | 1.0 | 0.00 | 0.00 | 0.00 | 75 | 1020.9 |
| 20260507063703 | 48 | 23 | 0.0 | 0.0 | 0.00 | 0.00 | 0.00 | 73 | 1021.1 |
| 20260507063203 | 48 | 22 | 0.0 | 1.0 | 0.00 | 0.00 | 0.00 | 73 | 1021.2 |
| 20260507060703 | 50 | 11 | 0.0 | 0.0 | 0.00 | 0.00 | 0.00 | 70 | 1021.5 |
| 20260507053703 | 50 | 32 | 1.0 | 2.0 | 0.00 | 0.00 | 0.00 | 69 | 1022.1 |
| 20260507053203 | 50 | 33 | 0.0 | 2.0 | 0.00 | 0.00 | 0.00 | 69 | 1022.0 |
| 20260507050704 | 51 | 49 | 0.0 | 3.0 | 0.00 | 0.00 | 0.00 | 68 | 1021.5 |
| 20260507050203 | 51 | 127 | 0.0 | 2.0 | 0.00 | 0.00 | 0.00 | 68 | 1021.3 |
| 20260507043703 | 51 | 125 | 0.0 | 1.0 | 0.00 | 0.00 | 0.00 | 70 | 1021.2 |
| 20260507040703 | 51 | 113 | 0.0 | 0.0 | 0.00 | 0.00 | 0.00 | 68 | 1021.0 |
| 20260507040202 | 51 | 113 | 0.0 | 0.0 | 0.00 | 0.00 | 0.00 | 67 | 1021.0 |
| 20260507033703 | 53 | 116 | 0.0 | 1.0 | 0.00 | 0.00 | 0.00 | 66 | 1020.9 |
| 20260507033203 | 53 | 116 | 0.0 | 1.0 | 0.00 | 0.00 | 0.00 | 65 | 1020.7 |
| 20260507030703 | 54 | 109 | 0.0 | 1.0 | 0.00 | 0.00 | 0.00 | 64 | 1020.6 |
| 20260507030203 | 54 | 109 | 0.0 | 1.0 | 0.00 | 0.00 | 0.00 | 64 | 1020.4 |
| 20260507023203 | 56 | 108 | 0.0 | 1.0 | 0.00 | 0.00 | 0.00 | 61 | 1020.2 |
| 20260507020702 | 57 | 107 | 0.0 | 2.0 | 0.00 | 0.00 | 0.00 | 58 | 1020.1 |
| 20260507020203 | 57 | 20 | 1.0 | 3.0 | 0.00 | 0.00 | 0.00 | 58 | 1019.9 |
| 20260507013703 | 59 | 97 | 0.0 | 2.0 | 0.00 | 0.00 | 0.00 | 56 | 1019.6 |
| 20260507010703 | 60 | 0 | 1.0 | 2.0 | 0.00 | 0.00 | 0.00 | 53 | 1019.6 |
| 20260507010203 | 60 | 0 | 0.0 | 6.0 | 0.00 | 0.00 | 0.00 | 53 | 1019.6 |
| 20260507003703 | 61 | 5 | 1.0 | 3.0 | 0.00 | 0.00 | 0.00 | 50 | 1019.5 |
| 20260507003203 | 61 | 12 | 1.0 | 3.0 | 0.00 | 0.00 | 0.00 | 49 | 1019.4 |
| 20260507000703 | 62 | 96 | 1.0 | 3.0 | 0.00 | 0.00 | 0.00 | 48 | 1019.1 |
| 20260507000205 | 62 | 82 | 1.0 | 10.0 | 0.00 | 0.00 | 0.00 | 47 | 1019.1 |
| 20260506233703 | 64 | 345 | 2.0 | 10.0 | 0.00 | 0.00 | 0.00 | 46 | 1018.9 |
| 20260506233204 | 64 | 135 | 2.0 | 10.0 | 0.00 | 0.00 | 0.00 | 45 | 1018.9 |
| 20260506230703 | 65 | 23 | 3.0 | 9.0 | 0.00 | 0.00 | 0.00 | 45 | 1018.5 |
| 20260506230203 | 65 | 339 | 2.0 | 10.0 | 0.00 | 0.00 | 0.00 | 46 | 1018.5 |
| 20260506223703 | 65 | 355 | 5.0 | 12.0 | 0.00 | 0.00 | 0.00 | 46 | 1018.0 |
| 20260506223203 | 66 | 24 | 3.0 | 8.0 | 0.00 | 0.00 | 0.00 | 46 | 1018.1 |
| 20260506220703 | 64 | 12 | 2.0 | 9.0 | 0.00 | 0.00 | 0.00 | 48 | 1017.9 |
| 20260506220203 | 65 | 331 | 5.0 | 13.0 | 0.00 | 0.00 | 0.00 | 45 | 1017.9 |
| 20260506213703 | 67 | 82 | 2.0 | 5.0 | 0.00 | 0.00 | 0.00 | 46 | 1017.9 |
| 20260506213203 | 66 | 0 | 3.0 | 13.0 | 0.00 | 0.00 | 0.00 | 47 | 1018.0 |
| 20260506210703 | 65 | 8 | 3.0 | 10.0 | 0.00 | 0.00 | 0.00 | 48 | 1018.4 |
| 20260506200703 | 64 | 107 | 2.0 | 12.0 | 0.00 | 0.00 | 0.00 | 49 | 1019.0 |
| 20260506193703 | 63 | 353 | 3.0 | 6.0 | 0.00 | 0.00 | 0.00 | 49 | 1019.0 |
| 20260506193203 | 63 | 14 | 3.0 | 14.0 | 0.00 | 0.00 | 0.00 | 50 | 1019.1 |
| 20260506190703 | 64 | 14 | 2.0 | 9.0 | 0.00 | 0.00 | 0.00 | 51 | 1019.3 |
| 20260506190203 | 63 | 98 | 5.0 | 10.0 | 0.00 | 0.00 | 0.00 | 49 | 1019.3 |
| 20260506183704 | 64 | 59 | 2.0 | 6.0 | 0.00 | 0.00 | 0.00 | 49 | 1019.7 |
| 20260506183204 | 64 | 7 | 3.0 | 12.0 | 0.00 | 0.00 | 0.00 | 49 | 1019.7 |
| 20260506180703 | 63 | 12 | 3.0 | 6.0 | 0.00 | 0.00 | 0.00 | 51 | 1019.9 |
| 20260506180203 | 62 | 108 | 7.0 | 14.0 | 0.00 | 0.00 | 0.00 | 50 | 1019.9 |
| 20260506173703 | 62 | 34 | 4.0 | 10.0 | 0.00 | 0.00 | 0.00 | 49 | 1020.1 |
| 20260506173204 | 63 | 356 | 4.0 | 17.0 | 0.00 | 0.00 | 0.00 | 48 | 1020.1 |
| 20260506163702 | 60 | 108 | 4.0 | 12.0 | 0.00 | 0.00 | 0.00 | 53 | 1020.5 |
| 20260506163203 | 59 | 65 | 5.0 | 13.0 | 0.00 | 0.00 | 0.00 | 54 | 1020.6 |
| 20260506160703 | 59 | 66 | 3.0 | 7.0 | 0.00 | 0.00 | 0.00 | 59 | 1020.5 |
| 20260506160203 | 59 | 325 | 4.0 | 13.0 | 0.00 | 0.00 | 0.00 | 59 | 1020.5 |
| 20260506153703 | 57 | 83 | 3.0 | 9.0 | 0.00 | 0.00 | 0.00 | 61 | 1020.1 |
| 20260506153203 | 58 | 94 | 3.0 | 10.0 | 0.00 | 0.00 | 0.00 | 61 | 1020.2 |
| 20260506150703 | 55 | 96 | 2.0 | 8.0 | 0.00 | 0.00 | 0.00 | 65 | 1020.1 |
| 20260506150204 | 55 | 49 | 4.0 | 12.0 | 0.00 | 0.00 | 0.00 | 65 | 1020.0 |
| 20260506143203 | 53 | 46 | 2.0 | 7.0 | 0.00 | 0.00 | 0.00 | 70 | 1019.6 |
| 20260506140703 | 52 | 100 | 2.0 | 7.0 | 0.00 | 0.00 | 0.00 | 72 | 1019.5 |
| 20260506140203 | 51 | 23 | 2.0 | 7.0 | 0.00 | 0.00 | 0.00 | 72 | 1019.6 |
| 20260506133703 | 50 | 1 | 3.0 | 9.0 | 0.00 | 0.00 | 0.00 | 74 | 1019.6 |
| 20260506133203 | 50 | 17 | 2.0 | 9.0 | 0.00 | 0.00 | 0.00 | 74 | 1019.8 |
| 20260506123703 | 48 | 24 | 1.0 | 8.0 | 0.00 | 0.00 | 0.00 | 80 | 1019.3 |